Precipitable_Water
1.49 1.45 1.34 1.27 1.24 1.22 1.20 1.18 1.21 1.21 1.20 1.20 1.15 1.14 1.13 1.15 1.20 1.23 1.30 1.35 1.37 1.38 1.41 1.42 1.44 1.40 1.42 1.46 1.47 1.41 1.40 1.41 1.36 1.37 1.34 1.32 1.31 1.31 1.29 1.29 1.26 1.22
1.51 1.48 1.42 1.37 1.31 1.28 1.25 1.24 1.23 1.22 1.22 1.22 1.20 1.19 1.17 1.16 1.20 1.22 1.26 1.33 1.38 1.39 1.41 1.42 1.37 1.36 1.40 1.44 1.42 1.38 1.35 1.38 1.35 1.41 1.34 1.31 1.33 1.33 1.31 1.31 1.29 1.27
1.51 1.49 1.43 1.37 1.32 1.28 1.29 1.27 1.27 1.25 1.24 1.24 1.25 1.22 1.20 1.18 1.18 1.21 1.24 1.31 1.36 1.37 1.39 1.37 1.34 1.34 1.39 1.37 1.37 1.35 1.33 1.34 1.33 1.36 1.36 1.35 1.35 1.32 1.32 1.33 1.31 1.28
1.49 1.50 1.46 1.43 1.44 1.39 1.36 1.32 1.30 1.29 1.29 1.26 1.26 1.26 1.25 1.22 1.20 1.19 1.22 1.29 1.32 1.33 1.38 1.36 1.32 1.33 1.32 1.34 1.37 1.35 1.34 1.34 1.33 1.33 1.32 1.34 1.35 1.34 1.32 1.33 1.32 1.28
1.44 1.46 1.48 1.48 1.49 1.49 1.41 1.35 1.31 1.29 1.29 1.31 1.32 1.31 1.28 1.25 1.20 1.20 1.20 1.24 1.27 1.30 1.31 1.31 1.37 1.34 1.34 1.35 1.37 1.31 1.30 1.28 1.30 1.29 1.30 1.30 1.32 1.31 1.31 1.30 1.26 1.22
1.42 1.45 1.47 1.49 1.48 1.47 1.41 1.35 1.36 1.34 1.33 1.33 1.33 1.35 1.31 1.29 1.23 1.20 1.22 1.24 1.24 1.25 1.29 1.33 1.34 1.32 1.33 1.35 1.33 1.31 1.29 1.25 1.24 1.24 1.23 1.24 1.25 1.26 1.26 1.25 1.22 1.18
1.34 1.41 1.46 1.51 1.48 1.48 1.42 1.38 1.38 1.38 1.37 1.37 1.39 1.35 1.33 1.29 1.25 1.23 1.24 1.28 1.26 1.25 1.29 1.31 1.29 1.28 1.32 1.32 1.29 1.27 1.25 1.22 1.22 1.22 1.19 1.19 1.19 1.19 1.21 1.19 1.17 1.16
1.28 1.37 1.48 1.50 1.45 1.47 1.44 1.40 1.37 1.38 1.37 1.39 1.35 1.36 1.34 1.29 1.28 1.26 1.26 1.28 1.25 1.21 1.28 1.29 1.27 1.27 1.30 1.30 1.26 1.24 1.20 1.21 1.19 1.19 1.16 1.15 1.15 1.13 1.15 1.15 1.14 1.11
1.20 1.23 1.28 1.35 1.41 1.44 1.42 1.40 1.37 1.37 1.40 1.37 1.35 1.36 1.36 1.31 1.28 1.27 1.26 1.27 1.24 1.21 1.24 1.25 1.25 1.26 1.28 1.28 1.24 1.21 1.17 1.17 1.17 1.17 1.15 1.12 1.11 1.10 1.11 1.11 1.08 1.06
1.16 1.19 1.21 1.26 1.30 1.37 1.38 1.41 1.40 1.38 1.40 1.38 1.37 1.37 1.33 1.33 1.31 1.28 1.27 1.25 1.21 1.20 1.22 1.22 1.22 1.22 1.23 1.24 1.22 1.19 1.15 1.15 1.16 1.17 1.16 1.13 1.11 1.09 1.09 1.08 1.07 1.06
1.12 1.15 1.16 1.20 1.24 1.31 1.34 1.39 1.40 1.38 1.39 1.36 1.37 1.34 1.34 1.34 1.31 1.30 1.26 1.24 1.18 1.18 1.20 1.20 1.20 1.19 1.18 1.20 1.21 1.20 1.17 1.16 1.16 1.17 1.17 1.15 1.12 1.10 1.09 1.08 1.05 1.05
1.08 1.12 1.14 1.18 1.22 1.26 1.32 1.38 1.39 1.37 1.38 1.37 1.36 1.34 1.34 1.33 1.30 1.28 1.24 1.22 1.18 1.17 1.21 1.21 1.21 1.19 1.18 1.17 1.17 1.17 1.16 1.15 1.16 1.17 1.16 1.14 1.11 1.09 1.09 1.08 1.05 1.04
1.03 1.09 1.13 1.17 1.21 1.24 1.29 1.33 1.34 1.35 1.35 1.33 1.36 1.35 1.33 1.30 1.29 1.27 1.25 1.24 1.21 1.18 1.19 1.20 1.20 1.17 1.16 1.16 1.15 1.14 1.12 1.13 1.14 1.15 1.13 1.11 1.09 1.09 1.09 1.07 1.05 1.04
0.99 1.07 1.14 1.17 1.22 1.25 1.29 1.29 1.28 1.29 1.30 1.33 1.34 1.33 1.32 1.30 1.28 1.27 1.26 1.26 1.24 1.19 1.19 1.21 1.20 1.17 1.15 1.14 1.12 1.11 1.10 1.10 1.12 1.12 1.10 1.07 1.06 1.06 1.06 1.04 1.03 1.02
1.00 1.07 1.15 1.17 1.19 1.24 1.27 1.26 1.22 1.24 1.26 1.31 1.30 1.30 1.32 1.31 1.31 1.30 1.27 1.24 1.24 1.21 1.18 1.20 1.20 1.15 1.12 1.09 1.09 1.09 1.08 1.07 1.09 1.10 1.09 1.05 1.02 1.02 1.02 1.03 1.01 1.00
1.06 1.07 1.10 1.13 1.14 1.15 1.20 1.23 1.22 1.20 1.23 1.26 1.25 1.28 1.31 1.32 1.30 1.29 1.26 1.23 1.21 1.21 1.19 1.18 1.19 1.17 1.12 1.09 1.08 1.07 1.06 1.06 1.08 1.08 1.07 1.05 1.02 1.01 1.00 1.01 1.01 1.00
1.07 1.06 1.07 1.06 1.08 1.09 1.16 1.20 1.19 1.16 1.17 1.21 1.23 1.25 1.29 1.29 1.28 1.26 1.24 1.22 1.21 1.20 1.18 1.16 1.18 1.15 1.11 1.09 1.07 1.07 1.06 1.04 1.04 1.04 1.05 1.04 1.02 1.01 0.99 0.99 1.00 0.99
1.05 1.04 1.02 1.03 1.04 1.05 1.11 1.16 1.18 1.14 1.15 1.18 1.21 1.23 1.28 1.30 1.26 1.26 1.23 1.22 1.21 1.21 1.20 1.18 1.17 1.13 1.07 1.07 1.07 1.08 1.07 1.06 1.04 1.01 1.01 1.01 1.01 1.01 1.00 1.00 0.99 0.97
1.00 0.98 0.97 0.97 0.99 1.04 1.10 1.15 1.13 1.08 1.12 1.15 1.17 1.22 1.28 1.27 1.25 1.26 1.23 1.22 1.21 1.19 1.19 1.19 1.18 1.10 1.05 1.06 1.09 1.10 1.08 1.07 1.04 1.00 0.98 0.99 0.99 0.99 0.99 0.99 0.98 0.96
0.94 0.92 0.91 0.91 0.97 1.03 1.07 1.11 1.09 1.03 1.08 1.16 1.20 1.23 1.23 1.23 1.25 1.26 1.25 1.21 1.20 1.21 1.19 1.19 1.14 1.06 1.05 1.08 1.10 1.10 1.08 1.08 1.07 1.02 0.99 0.98 0.98 0.98 0.98 0.98 0.97 0.95
0.91 0.90 0.88 0.89 0.97 1.01 1.05 1.06 1.02 1.02 1.09 1.13 1.15 1.15 1.18 1.19 1.22 1.24 1.23 1.22 1.21 1.23 1.21 1.19 1.11 1.00 1.01 1.07 1.10 1.09 1.08 1.08 1.12 1.06 0.99 0.97 0.97 0.97 0.98 0.97 0.96 0.96
0.90 0.87 0.87 0.89 0.94 0.97 0.99 0.97 0.96 1.00 1.03 1.10 1.13 1.16 1.19 1.20 1.23 1.24 1.21 1.20 1.22 1.23 1.20 1.15 1.08 1.01 1.04 1.08 1.12 1.11 1.10 1.08 1.11 1.05 0.98 0.95 0.94 0.95 0.96 0.96 0.96 0.95
0.84 0.83 0.82 0.84 0.89 0.91 0.93 0.92 0.93 0.97 1.02 1.08 1.07 1.09 1.11 1.12 1.15 1.18 1.20 1.20 1.21 1.21 1.17 1.12 1.02 1.01 1.03 1.08 1.12 1.12 1.09 1.08 1.07 1.04 0.98 0.93 0.92 0.92 0.94 0.94 0.95 0.96
0.82 0.79 0.77 0.80 0.84 0.86 0.86 0.87 0.91 0.97 0.99 1.04 1.03 1.05 1.08 1.12 1.17 1.19 1.20 1.22 1.22 1.21 1.19 1.11 1.01 1.01 1.04 1.08 1.12 1.12 1.10 1.07 1.04 1.01 0.97 0.94 0.90 0.91 0.92 0.93 0.94 0.94
0.80 0.78 0.75 0.78 0.82 0.84 0.86 0.85 0.87 0.91 0.98 1.06 1.10 1.13 1.14 1.18 1.19 1.17 1.20 1.24 1.26 1.24 1.22 1.13 1.04 1.01 1.04 1.08 1.12 1.12 1.11 1.09 1.05 1.01 0.95 0.92 0.88 0.87 0.91 0.91 0.92 0.93
0.80 0.76 0.77 0.79 0.81 0.84 0.86 0.86 0.92 0.99 1.03 1.05 1.09 1.13 1.15 1.18 1.19 1.20 1.20 1.22 1.24 1.22 1.18 1.14 1.04 1.00 1.02 1.07 1.11 1.11 1.10 1.10 1.06 1.00 0.92 0.90 0.87 0.87 0.89 0.90 0.90 0.91
Wind_Speed
32 31 30 29 27 26 25 24 23 22 21 20 18 17 17 18 18 18 19 19 19 18 18 18 17 17 17 17 17 16 15 15 15 15 15 15 15 14 15 15 15 15
34 32 31 29 28 27 26 25 24 22 21 20 19 18 18 18 18 19 19 19 19 19 18 18 17 17 17 17 17 16 16 16 15 15 15 15 15 15 15 15 15 16
35 33 32 31 29 28 27 25 24 23 22 21 20 19 19 19 19 19 19 20 19 19 19 18 18 18 17 17 17 17 16 16 16 16 15 15 15 15 15 15 16 16
35 34 33 32 30 29 28 26 24 24 23 22 21 21 20 20 20 19 20 20 20 19 19 19 19 18 18 18 17 17 17 17 16 16 16 16 15 16 16 15 15 16
34 34 33 32 30 29 28 27 26 25 24 23 23 22 21 20 19 19 20 20 20 20 19 19 19 19 18 18 18 17 17 17 16 16 16 16 15 16 16 16 16 16
34 34 33 32 31 30 29 28 27 26 25 24 23 22 21 20 20 20 20 20 20 20 20 20 19 19 19 18 18 17 17 17 17 16 16 16 15 15 15 16 16 16
34 34 34 33 32 31 30 29 28 27 26 24 24 23 22 21 21 21 21 20 20 20 20 20 20 19 19 18 18 18 17 17 17 17 16 16 16 16 15 16 16 16
34 33 33 33 33 32 31 30 29 28 27 25 24 24 23 22 22 21 21 20 20 20 20 21 20 20 19 19 18 18 17 17 17 17 17 17 16 16 16 16 16 17
33 32 32 33 33 33 32 31 30 28 27 26 25 24 24 23 23 22 21 21 21 21 21 21 20 20 20 19 19 18 18 18 18 17 17 17 17 17 17 17 17 18
34 32 32 33 33 33 32 32 31 29 28 27 26 25 25 24 23 22 21 21 21 22 21 21 21 20 20 20 19 19 19 19 18 18 18 17 17 17 17 18 18 18
35 33 33 33 33 32 32 32 31 30 29 28 27 26 25 25 24 23 22 22 22 22 22 22 21 20 20 20 20 19 19 19 19 18 18 18 18 18 18 18 18 18
35 34 34 33 32 32 32 32 31 30 29 28 28 28 27 26 25 24 24 23 23 23 23 22 22 21 20 20 20 20 20 19 19 19 19 19 18 18 18 18 18 18
36 35 35 34 33 32 32 32 31 30 29 29 28 29 28 27 26 25 25 24 24 24 24 23 22 22 21 21 20 20 20 20 20 19 19 19 19 19 19 19 19 19
38 36 35 34 33 33 33 32 32 31 30 29 29 29 29 28 27 26 25 24 24 24 24 23 23 23 22 21 21 21 21 20 20 20 19 19 19 19 19 19 20 19
39 38 36 35 33 33 34 34 34 33 31 31 30 30 30 29 28 27 26 25 25 25 25 24 24 23 23 22 22 22 21 21 21 20 20 19 19 19 20 20 20 20
40 39 37 36 35 34 34 35 34 34 33 32 31 30 30 30 29 28 27 26 26 26 26 25 24 24 24 23 22 22 21 21 21 20 20 20 20 20 20 20 20 20
41 40 38 37 36 35 35 35 35 34 34 33 32 31 31 30 29 28 28 27 27 27 27 25 25 25 24 24 23 23 22 21 21 21 20 20 20 20 20 21 21 21
41 40 39 38 36 35 35 36 35 35 34 34 33 32 31 30 30 29 29 27 27 28 28 27 26 25 25 25 25 24 23 22 21 21 21 21 21 21 21 21 21 21
41 40 39 39 37 36 36 36 36 36 35 34 34 33 32 31 30 30 29 28 27 28 28 28 26 26 26 26 26 25 25 23 22 21 21 21 22 22 21 21 21 21
42 41 40 39 37 37 37 37 36 36 35 35 34 33 32 32 31 30 29 28 28 28 28 28 27 27 27 27 27 26 26 25 24 22 22 22 22 22 22 22 22 22
43 42 41 39 38 37 37 37 37 36 36 35 34 34 33 32 31 31 29 29 29 28 28 28 28 29 29 28 28 28 27 26 25 24 23 22 22 22 23 22 22 23
43 42 41 39 38 38 37 37 37 37 36 35 34 34 33 32 32 31 30 30 29 29 28 28 28 30 30 29 29 28 27 27 26 25 23 23 23 23 23 23 23 23
43 42 41 40 39 38 38 37 37 37 36 34 34 33 33 32 32 31 30 30 30 29 29 28 29 30 30 29 29 29 28 27 27 26 24 24 23 24 24 23 23 23
43 42 41 40 39 39 38 37 37 37 35 34 34 33 33 32 32 30 30 30 30 29 29 28 29 30 31 30 30 30 29 28 27 27 25 25 24 24 24 24 24 24
42 42 41 40 40 38 37 37 37 36 35 34 34 33 32 32 31 30 30 30 29 29 29 29 29 30 31 31 31 31 30 29 28 28 27 26 26 25 25 25 24 25
41 41 41 40 39 38 36 36 36 36 35 34 34 33 32 31 31 30 30 29 29 29 30 30 30 30 31 32 31 32 32 30 30 29 28 27 26 26 26 25 25 25
Wind_Direction
224 227 228 229 231 233 234 235 236 239 241 243 247 251 254 256 257 257 258 260 260 259 260 263 266 266 266 265 265 268 270 269 270 271 270 269 270 271 269 267 266 268
224 226 228 228 230 232 233 234 236 238 240 243 247 251 253 255 256 256 257 259 260 259 260 263 266 266 265 264 265 267 268 268 269 270 270 269 270 271 269 267 266 267
223 225 227 228 230 231 232 234 236 237 240 243 246 249 252 254 255 257 258 259 260 260 260 262 265 265 263 262 263 264 265 267 268 270 271 270 270 270 269 268 266 266
223 224 226 229 231 232 232 233 235 237 240 242 245 248 252 255 256 257 259 259 259 259 259 262 264 263 262 260 260 262 263 266 269 270 271 271 270 268 268 268 267 266
222 223 225 229 231 232 233 234 235 237 240 242 245 248 252 254 256 258 260 260 259 259 259 261 262 261 260 258 259 260 262 266 268 268 270 270 269 267 267 267 266 266
222 223 225 229 231 232 233 235 236 237 240 243 245 249 252 253 255 257 258 259 259 258 257 258 259 258 257 256 257 259 261 264 266 266 268 269 268 267 267 266 265 265
222 224 227 228 229 231 234 235 237 239 241 243 245 248 251 252 253 254 256 258 259 258 257 257 257 256 255 255 256 258 260 262 264 264 265 266 267 266 266 265 264 263
222 223 226 228 229 231 234 236 238 239 241 242 245 248 250 250 251 253 255 257 258 256 255 256 256 255 254 254 255 257 259 261 262 262 263 264 264 264 264 264 263 263
223 223 225 227 229 231 233 235 237 238 240 242 244 247 249 249 250 252 255 256 256 255 254 254 255 255 254 254 255 256 257 259 260 261 262 262 262 262 263 263 263 262
223 224 225 227 229 231 233 234 235 237 239 241 243 246 248 249 250 252 254 255 255 254 253 253 253 254 253 253 254 255 255 257 259 260 261 261 262 262 262 263 262 261
222 224 226 228 230 232 233 234 234 236 238 240 242 245 247 249 250 251 253 254 254 253 252 252 252 252 252 252 253 254 255 256 258 259 261 261 262 261 261 262 261 261
222 224 226 228 231 233 234 234 234 236 238 240 242 244 246 249 250 251 253 253 253 252 252 251 252 252 251 251 252 253 254 256 257 259 261 262 261 261 261 261 261 261
223 224 226 228 231 233 233 233 234 236 239 241 243 243 245 248 250 250 251 252 252 251 251 251 251 251 250 250 251 253 253 255 256 258 261 262 261 261 261 261 261 262
224 225 227 229 230 232 233 234 235 237 240 242 243 243 245 247 249 249 250 251 252 251 251 251 250 249 249 249 251 252 253 254 255 257 260 261 261 260 261 262 262 263
225 225 227 228 229 231 233 235 236 238 241 243 242 242 244 246 247 249 249 250 251 250 250 251 250 249 247 247 249 251 252 253 255 257 259 260 260 260 261 262 262 263
225 226 227 228 229 231 233 235 237 239 241 242 242 243 244 245 246 247 248 249 250 250 249 250 250 248 246 245 246 249 251 253 254 256 258 259 259 261 262 262 263 263
225 226 227 228 230 232 234 235 237 239 241 242 242 242 243 243 244 246 247 248 249 249 248 249 250 247 245 243 244 246 249 251 253 256 258 259 260 261 262 263 262 262
224 226 228 229 231 233 234 236 238 239 241 241 241 242 242 242 243 245 246 247 249 249 248 249 249 246 243 241 242 245 248 251 254 256 258 259 260 262 263 263 263 262
224 226 228 230 232 233 234 236 238 239 240 240 240 240 240 241 243 244 245 246 248 249 248 248 248 245 241 240 243 246 248 250 254 256 258 259 260 262 263 264 263 262
224 226 228 230 232 233 235 236 238 239 239 239 239 239 240 241 242 244 245 246 248 249 248 248 247 244 241 241 244 246 247 250 254 256 259 260 261 263 263 264 263 262
224 226 228 230 231 233 234 236 237 237 238 238 238 239 240 241 242 244 245 246 247 248 248 249 247 244 242 242 244 245 247 250 254 256 258 260 261 262 263 264 263 262
224 226 228 229 230 232 233 235 236 236 236 236 237 239 240 241 242 244 245 246 246 247 247 249 248 244 241 242 243 244 247 251 253 255 257 260 261 261 263 264 263 263
224 226 228 228 229 231 232 233 234 234 233 235 237 239 241 241 242 245 246 246 246 246 247 249 248 243 241 242 242 243 246 250 252 253 256 259 260 261 262 264 263 263
224 226 227 228 228 230 231 232 232 232 233 235 238 239 240 241 243 245 246 245 245 245 247 248 247 243 241 241 241 243 245 249 251 252 255 258 259 260 261 263 263 262
224 226 227 227 227 229 230 231 231 231 233 236 239 240 241 242 243 245 245 245 245 246 247 248 247 243 241 241 242 242 245 248 250 251 254 257 258 259 260 262 263 263
223 225 225 225 226 227 229 229 230 232 234 237 239 240 241 242 243 244 244 245 246 247 248 248 247 244 242 242 242 242 244 247 249 250 253 255 256 258 260 262 263 263